Showing default

IRIDIUM 146, 43254

Orbit data source: Space-Track

IRIDIUM 146, 43254 is a payload satellite owned by Iridium (US) in LEO that was launched on Fri, 30 Mar 2018 UTC via an FALCON 9 launch vehicle from the Air Force Western Test Range (AFWTR). Payload-class satellites include a variety of spacecraft equipped with specific instruments for various scientific and technological missions. These include communications satellites like Starlink; space stations such as the ISS; scientific satellites like the Hubble; Earth observation satellites from companies like Planet Labs, Umbra, and HawkEye 360; GPS; miniature CubeSats for education and research; and military/defense satellites.

Loading next visibility...
Identifier
43254, 2018-030F
Orbit
LEO
Country
Flag of USUS
Related business
Manufacturer
OATK SSG Gilbert
Mission
Operational Commercial Communications
Bus & Motor
ELITEBUS, Unknown motor
Mass
860 kg wet, 700 kg dry
Launch date (UTC)
2018-03-30 (8 years ago)
Launch vehicle
FALCON 9
Launch site
Air Force Western Test Range (AFWTR)
Object type
Payload
Rocket body
Debris
Shape & HBR
Trap Box + 2 Pan, 4.8 m
Radar Cross Section
10.154 m², Large (>1 m²)

Expand to show TLE details & history
Last TLE update: 9 hours ago

TLE from 9 hours ago
0 IRIDIUM 146
1 43254U 18030F   26256.08184077  .00000046  00000-0  93469-5 0  9992
2 43254  86.3907 253.6506 0002192  88.1975 271.9472 14.34217507442738
Epoch: 2026-09-13T01:57Z
TLE epoch observation values (Epoch: 2026-09-13T01:57:51.042Z)
Latitude
-0.00001°
Longitude
-127.89368°
Altitude
780.666 km
Speed
7.464 km/s
True Right ascension
16h 54m 36s
True Declination
0° 00' 00"
Sunlit
Object was in daylight at epoch
Visualization orbit readout
Latitude
Unknown
Longitude
Unknown
Altitude
Unknown
Speed
Unknown
Apparent Right ascension
Unknown
Apparent Declination
Unknown
Sunlit
N/A
Visualization observer readout
Local Sidereal Time
03:33:01
Azimuth
Unknown
Elevation
Unknown
Doppler factor
Unknown
Orbital elements
Apogee altitude
776.2 km
Perigee altitude
773.065 km
Semi-major axis
7,152.77 km
Eccentricity
0.00022
Inclination
86.3907°
RAAN
253.6506°
Arg. of periapsis
88.1975°
True anomaly
271.9221°
Mean anomaly
271.9472°
Eccentric anomaly
271.93465°
Mean motion
3.58783 °/min
Orbital period
100.34 mins
BSTAR
0.0000093469
Loading maneuver chart data...
Computing Atmospheric mass density...
Loading historical data...
Loading historical data...
Loading historical data...
Loading historical data...
Loading historical data...
Loading historical data...
Loading historical data...

Documentation

Showing up to 5 results
|